EHI
0 0 0 0 0 0 0 0 0 0 0 0 0 0 0 0 0 0 0 0 0 0 0 0 1 1 1 0 0 0 1 1 0 0 0 0 1 2 3 2 1 0 0 0
0 0 0 0 0 0 0 0 0 0 0 0 0 0 0 0 0 0 0 0 0 0 0 0 0 0 0 0 0 1 2 2 1 0 0 0 1 2 3 2 0 0 0 0
0 0 0 0 0 0 0 0 0 0 0 0 0 0 0 0 0 0 0 0 0 0 0 0 0 0 0 0 0 1 2 2 1 0 0 0 1 3 3 2 0 0 0 0
0 0 0 0 0 0 0 0 0 0 0 0 0 0 0 0 0 0 0 0 0 0 0 0 0 0 0 0 0 0 1 1 0 0 0 0 1 2 2 1 0 0 0 0
0 0 0 0 0 0 0 0 0 0 0 0 0 0 0 0 0 0 0 0 0 0 0 0 0 0 0 0 0 0 0 0 0 0 0 0 1 1 1 0 0 0 0 0
0 0 0 0 0 0 0 0 0 0 0 0 0 0 0 0 0 0 0 0 0 0 0 0 0 0 0 0 0 0 0 0 0 0 0 0 0 0 0 0 0 0 0 0
0 0 0 0 0 0 0 0 0 0 0 0 0 0 0 0 0 0 0 0 0 0 0 0 0 0 0 0 0 0 0 0 0 0 0 0 0 0 0 0 0 0 0 0
0 0 0 0 0 0 0 0 0 0 0 0 0 0 0 0 0 0 0 0 0 0 0 0 0 0 0 0 0 0 0 0 0 0 0 0 0 0 0 0 0 0 0 0
0 0 0 0 0 0 0 0 0 0 0 0 0 0 0 0 0 0 0 0 0 0 0 0 0 0 0 0 0 0 0 0 0 0 0 0 0 0 0 0 0 0 0 0
0 0 0 0 0 0 0 0 0 0 0 0 0 0 0 0 0 0 0 0 0 0 0 0 0 0 0 0 0 0 0 0 0 0 0 0 0 0 0 0 0 0 0 0
0 0 0 0 0 0 0 0 0 0 0 0 0 0 0 0 0 0 0 0 0 0 0 0 0 0 0 0 0 0 0 0 0 0 0 0 0 0 0 0 0 0 0 0
0 0 0 0 0 0 0 0 0 0 0 0 0 0 0 0 0 0 0 0 0 0 0 0 0 0 0 0 0 0 0 0 0 0 0 0 0 0 0 0 0 0 0 0
0 0 0 0 0 0 0 0 0 0 0 0 0 0 0 0 0 0 0 0 0 0 0 0 0 0 0 0 0 0 0 0 0 0 0 0 0 0 0 0 0 0 0 0
0 0 0 0 0 0 0 0 0 0 0 0 0 0 0 0 0 0 0 0 0 0 0 0 0 0 0 0 0 0 0 0 0 0 0 0 0 0 0 0 0 0 0 0
0 0 0 0 0 0 0 0 0 0 0 0 0 0 0 0 0 0 0 0 0 0 0 0 0 0 0 0 0 0 0 0 0 0 0 0 0 0 0 0 0 0 0 0
0 0 0 0 0 0 0 0 0 0 0 0 0 0 0 0 0 0 0 0 0 0 0 0 0 0 0 0 0 0 0 0 0 0 0 0 0 0 0 0 0 0 0 0
0 0 0 0 0 0 0 0 0 0 0 0 0 0 0 0 0 0 0 0 0 0 0 0 0 0 0 0 0 0 0 0 0 0 0 0 0 0 0 0 0 0 0 0
0 0 0 0 0 0 0 0 0 0 0 0 0 0 0 0 0 0 0 0 0 0 0 0 0 0 0 0 0 0 0 0 0 0 0 0 0 0 0 0 0 0 0 0
0 0 0 0 0 0 0 0 0 0 0 0 0 0 0 0 0 0 0 0 0 0 0 0 0 0 0 0 0 0 0 0 0 0 0 0 0 0 0 0 0 0 0 0
0 0 0 0 0 0 0 0 0 0 0 0 0 0 0 0 0 0 0 0 0 0 0 0 0 0 0 0 0 0 0 0 0 0 0 0 0 0 0 0 0 0 0 0
0 0 0 0 0 0 0 0 0 0 0 0 0 0 0 0 0 0 0 0 0 0 0 0 0 0 0 0 0 0 0 0 0 0 0 0 0 0 0 0 0 0 0 0
0 0 0 0 0 0 0 0 0 0 0 0 0 0 0 0 0 0 0 0 0 0 0 0 0 0 0 0 0 0 0 0 0 0 0 0 0 0 0 0 0 0 0 0
0 0 0 0 0 0 0 0 0 0 0 0 0 0 0 0 0 0 0 0 0 0 0 0 0 0 0 0 0 0 0 0 0 0 0 0 0 0 0 0 0 0 0 0
0 0 0 0 0 0 0 0 0 0 0 0 0 0 0 0 0 0 0 0 0 0 0 0 0 0 0 0 0 0 0 0 0 0 0 0 0 0 0 0 0 0 0 0
0 0 0 0 0 0 0 0 0 0 0 0 0 0 0 0 0 0 0 0 0 0 0 0 0 0 0 0 0 0 0 0 0 0 0 0 0 0 0 0 0 0 0 0
0 0 0 0 0 0 0 0 0 0 0 0 0 0 0 0 0 0 0 0 0 0 0 0 0 0 0 0 0 0 0 0 0 0 0 0 0 0 0 0 0 0 0 0
Wind_Speed
8 7 10 11 13 10 8 8 9 7 3 4 8 11 11 8 7 6 5 5 5 4 3 3 2 2 2 1 1 1 2 2 2 1 1 2 2 2 2 2 3 4 4 4
7 12 12 9 8 10 11 11 11 7 4 4 8 12 12 10 8 7 6 4 4 4 4 3 3 2 2 1 1 1 1 2 2 2 2 2 2 2 2 2 2 3 4 4
12 5 7 10 9 10 11 11 10 8 7 7 8 11 10 8 7 5 4 4 3 3 3 3 2 2 1 0 0 1 1 1 2 3 2 1 1 1 1 2 2 2 3 4
11 10 7 9 11 10 10 7 8 7 5 5 3 7 5 5 5 6 6 5 4 4 3 2 2 2 1 1 1 1 1 1 1 2 2 3 2 2 2 2 2 2 3 3
7 7 8 11 11 9 5 2 5 7 6 7 6 7 8 6 6 7 6 5 4 4 4 3 2 2 2 2 1 1 1 1 1 2 3 3 3 3 2 1 3 3 3 3
9 5 5 6 5 5 2 2 4 5 3 7 9 8 7 4 6 6 6 5 4 4 3 3 3 3 2 2 1 1 2 2 1 1 1 2 3 3 2 3 3 3 2 2
9 10 7 3 3 4 4 3 2 3 5 8 6 7 7 3 2 4 6 5 4 3 3 3 3 2 1 1 1 1 2 2 2 1 2 2 2 2 3 3 3 3 2 2
7 7 11 9 8 6 8 7 5 5 4 3 3 7 4 3 3 4 5 6 5 4 3 3 2 2 1 0 0 1 2 2 2 2 2 2 2 2 2 2 2 3 3 3
6 4 6 7 6 5 6 8 5 3 4 4 6 5 2 2 4 5 5 5 5 4 3 2 2 1 1 0 0 1 2 2 2 2 2 2 2 2 2 3 3 3 3 3
2 2 4 3 3 5 5 4 4 5 4 6 6 7 5 6 6 6 6 5 4 4 3 2 2 2 1 1 1 1 2 2 2 2 2 2 2 2 2 2 3 3 3 3
3 3 4 5 8 9 7 5 5 5 5 4 4 4 0 6 6 5 5 4 3 2 2 2 2 2 1 1 1 1 2 2 2 2 2 2 3 2 3 3 3 3 3 3
4 3 4 6 5 5 8 8 8 5 6 5 4 4 2 4 4 4 3 3 2 2 2 2 1 1 1 0 1 1 2 2 2 2 2 3 3 3 3 3 3 3 4 4
5 4 3 3 3 3 5 7 8 6 3 5 5 5 0 3 3 2 2 1 1 2 2 2 1 1 1 1 1 1 2 3 3 2 2 3 4 4 4 4 4 4 4 4
3 4 7 7 3 3 5 7 8 7 6 7 9 8 5 3 2 1 1 2 2 2 2 2 1 0 1 1 2 2 2 2 3 3 2 3 4 4 4 4 4 4 4 4
3 5 6 8 6 5 7 9 11 13 11 9 9 11 10 6 4 3 2 2 2 2 2 1 1 0 1 2 2 2 2 2 3 3 3 4 4 4 5 5 5 5 5 5
3 4 4 8 8 8 11 11 12 13 13 14 14 14 9 6 4 3 2 2 2 2 2 1 1 1 1 2 2 2 2 3 3 3 4 4 4 5 5 5 5 5 5 5
5 4 3 5 5 6 12 13 15 13 12 12 15 13 6 5 5 3 2 2 2 2 2 1 1 1 1 2 2 2 2 3 3 4 4 5 5 6 6 6 6 5 5 6
6 6 3 3 3 11 8 5 10 12 12 11 9 7 6 5 3 2 1 1 2 2 2 2 2 1 2 2 2 3 3 2 3 4 5 5 6 6 7 6 6 6 5 5
8 7 4 3 6 8 6 5 5 6 8 7 7 6 4 1 1 2 0 2 3 3 2 2 1 1 2 2 2 3 3 3 3 4 5 5 6 6 7 7 6 6 6 6
8 7 6 5 6 7 3 2 1 1 5 4 4 3 2 1 2 2 2 4 4 4 3 2 1 1 2 2 2 3 3 3 4 4 5 5 5 6 7 7 7 6 6 6
7 8 10 9 8 7 3 2 4 4 4 1 2 1 1 2 2 2 4 4 4 3 2 1 1 1 2 2 2 3 3 4 4 4 5 5 5 6 7 6 5 5 5 6
7 6 8 7 8 7 1 3 4 2 2 3 3 2 2 2 3 4 4 3 2 1 1 1 1 1 2 2 2 3 4 4 4 4 5 6 5 5 6 5 5 5 5 5
6 5 3 5 5 1 1 2 1 2 2 2 2 3 3 2 2 2 2 1 0 0 0 0 1 2 3 3 2 3 4 4 4 4 5 5 5 5 5 5 5 5 4 4
3 3 3 3 4 2 1 1 2 1 1 1 2 2 2 1 1 0 0 1 1 0 0 0 1 2 3 3 3 3 4 4 4 5 5 5 5 5 5 4 4 4 4 4
3 2 3 5 4 2 3 2 1 1 1 1 1 1 0 1 1 1 1 2 1 0 1 0 1 2 3 3 3 3 3 3 4 4 4 4 4 5 5 4 4 4 4 4
5 5 5 5 3 3 3 2 1 1 2 1 1 1 1 1 2 1 1 1 1 1 1 0 1 2 3 3 3 3 3 2 3 4 4 3 3 4 4 4 5 6 7 10
Wind_Direction
190 211 215 215 215 239 266 273 271 270 272 248 256 267 269 260 250 248 240 226 208 202 190 153 153 147 155 160 176 185 178 191 177 182 206 215 232 237 242 235 234 231 219 209
199 225 228 233 233 238 249 262 269 280 287 285 275 273 268 254 242 234 229 221 204 188 189 164 164 151 156 167 167 225 203 204 188 199 209 215 221 222 223 234 239 233 227 217
219 217 209 224 230 236 242 246 257 271 296 274 279 275 249 241 229 214 212 212 195 180 167 150 156 149 140 129 60 299 248 232 202 194 200 226 218 220 220 239 240 241 244 228
236 241 226 225 229 230 248 243 256 271 274 269 252 286 264 241 216 198 196 198 199 179 158 152 145 118 108 85 43 333 266 245 226 200 196 200 211 217 228 225 238 245 241 240
229 214 211 222 229 226 241 289 267 263 260 270 245 256 268 222 218 203 190 183 180 164 152 154 142 119 92 71 47 348 338 291 243 223 216 213 225 229 227 224 237 244 242 240
248 250 231 229 229 225 221 276 273 258 252 254 227 224 267 228 212 180 167 159 152 142 133 126 114 109 90 64 29 354 347 327 304 252 243 231 233 238 243 246 242 242 241 243
227 223 211 199 183 192 189 186 223 218 214 239 212 218 243 203 153 152 160 152 141 137 132 129 123 115 111 86 17 345 339 319 315 308 289 269 252 252 249 250 246 254 250 247
213 216 190 190 196 188 199 202 209 223 230 246 215 233 241 143 122 121 135 138 134 137 132 128 131 129 120 115 347 342 334 313 310 304 295 293 274 254 253 256 248 247 246 242
212 216 167 185 195 194 193 215 234 272 288 275 241 238 223 166 145 143 138 137 147 143 135 132 118 114 90 26 349 328 327 317 320 318 310 300 289 273 271 266 256 249 249 251
241 215 179 157 173 227 237 207 181 206 228 245 242 232 221 182 175 162 158 157 155 150 153 148 135 116 90 44 7 331 330 315 306 316 316 314 297 281 277 277 272 269 263 263
216 201 178 174 201 201 197 215 214 215 228 229 250 249 220 161 163 162 160 152 152 151 148 141 126 114 103 54 3 335 329 324 320 325 321 320 311 296 283 276 276 280 279 269
196 200 217 218 217 224 211 210 204 213 230 229 253 272 13 118 126 126 129 131 133 134 131 121 111 93 75 23 336 336 336 336 315 315 320 319 317 310 296 287 282 281 281 276
171 187 199 210 228 219 232 228 224 234 242 236 238 254 40 97 114 123 121 129 138 130 126 108 89 61 358 339 335 336 338 338 332 328 322 319 317 313 300 294 288 284 280 279
196 209 212 212 213 188 221 227 224 220 227 239 237 250 259 259 249 230 214 204 163 144 135 123 105 32 345 346 347 337 335 343 343 335 320 313 308 304 299 294 292 290 286 282
195 226 240 260 268 246 245 236 225 226 228 235 249 251 255 251 253 242 235 191 171 181 166 159 160 340 340 348 350 344 339 344 340 335 325 306 301 299 299 294 292 292 289 288
197 233 249 254 252 251 252 244 238 238 238 243 254 259 258 272 267 250 230 201 208 206 174 151 129 23 342 334 337 338 335 332 334 327 316 313 307 301 298 293 289 286 286 284
192 199 216 246 240 265 254 232 230 232 231 234 246 251 251 254 258 256 234 198 197 197 143 112 85 37 346 334 334 328 320 328 329 319 317 319 316 310 300 296 295 289 286 287
201 204 219 241 221 238 243 218 223 234 241 236 242 242 229 235 256 280 267 181 171 135 102 78 58 20 346 338 338 331 328 328 320 316 316 318 319 315 312 302 294 291 289 289
207 198 206 215 236 261 263 238 211 223 249 234 234 239 238 226 305 296 160 127 125 109 102 99 85 25 343 332 335 334 325 320 316 312 312 314 316 315 313 306 301 297 294 291
206 199 205 214 230 240 243 191 137 111 267 250 213 208 195 141 220 234 122 99 89 83 79 76 59 20 336 323 339 329 314 316 310 309 310 313 316 313 308 306 304 303 297 293
192 203 213 223 237 255 257 158 125 180 238 66 107 136 159 181 200 128 95 83 83 80 70 58 34 339 311 318 331 313 311 309 310 318 319 315 314 313 309 307 308 309 307 305
193 199 207 210 227 242 182 143 177 210 57 52 56 67 76 67 63 75 78 80 82 80 50 10 343 316 317 328 334 315 310 316 329 328 320 315 314 316 318 315 313 314 314 309
207 203 200 210 224 266 123 147 101 60 55 39 48 63 72 73 75 67 69 74 91 201 267 352 342 323 323 330 336 317 317 332 329 322 316 315 318 318 318 318 319 318 320 315
238 216 223 246 251 249 218 29 43 44 86 69 59 59 64 80 86 76 269 266 254 250 293 4 346 326 321 330 335 320 323 329 323 318 316 317 319 322 324 323 321 318 318 316
240 227 248 257 261 264 240 248 280 327 8 44 43 61 109 166 237 250 253 263 258 266 283 324 316 305 308 319 319 322 323 329 325 318 317 320 323 322 320 320 317 314 308 308
228 228 228 245 255 253 259 257 223 217 228 235 229 218 240 207 222 230 243 256 247 245 248 272 292 297 305 313 315 320 324 330 323 315 317 319 320 318 317 318 320 320 316 320